Regional Weather Roundup
Issued by NWS

Home | Current Version | Previous Version | Text Only | Print | Product List | Glossary On
Versions: 1 2 3 4 5 6 7 8 9 10 11 12 13 14 15 16 17 18 19 20 21 22 23 24 25 26 27 28 29 30 31 32 33 34 35 36 37 38 39 40 41 42 43 44 45 46 47 48 49 50
000
ASUS43 KLMK 271710
RWRKY
KENTUCKY REGIONAL WEATHER ROUNDUP
NATIONAL WEATHER SERVICE LOUISVILLE KY
100 PM EDT TUE JUN 27 2017

NOTE "FAIR" INDICATES FEW OR NO CLOUDS BELOW 12,000 FEET
WITH NO SIGNIFICANT WEATHER AND/OR OBSTRUCTIONS TO VISIBILITY.

KYZ001>023-026-027-061>063-070>075-271800-
WESTERN AND SOUTH CENTRAL KENTUCKY

CITY           SKY/WX    TMP DP  RH WIND       PRES   REMARKS
PADUCAH        SUNNY     77  54  44 E8        30.13S
HENDERSON      SUNNY     74  55  51 VRB3      30.16S
OWENSBORO      SUNNY     75  54  47 CALM      30.16S
HOPKINSVILLE   SUNNY     75  53  45 CALM      30.13F
BOWLING GREEN  SUNNY     77  53  43 VRB3      30.15S
GLASGOW        SUNNY     76  51  41 NW5       30.15S
$$

KYZ024-025-028>034-038-045-046-053-271800-
NORTH CENTRAL KENTUCKY

CITY           SKY/WX    TMP DP  RH WIND       PRES   REMARKS
LOUISVILLE/SDF MOSUNNY   73  52  47 CALM      30.15F
LOUISVILLE/LOU SUNNY     75  53  46 N7        30.15F
FORT KNOX      SUNNY     73  51  46 NW6       30.14S
$$

KYZ035>037-039>044-047>052-055>060-089>105-271800-
NORTHEAST KENTUCKY

CITY           SKY/WX    TMP DP  RH WIND       PRES   REMARKS
LEXINGTON      SUNNY     73  50  44 N6        30.16F
COVINGTON      MOSUNNY   69  50  50 NW8       30.15F
FRANKFORT      MOSUNNY   71  47  42 W9G17     30.15F
$$

KYZ054-064>069-076>088-106>120-271800-
SOUTHEAST KENTUCKY

CITY           SKY/WX    TMP DP  RH WIND       PRES   REMARKS
JACKSON        MOSUNNY   71  51  49 VRB3      30.15F
LONDON         MOSUNNY   72  50  45 VRB7      30.15F
SOMERSET       PTSUNNY   72  50  46 CALM      30.16F
MIDDLESBORO    MOSUNNY   74  53  47 N6        30.15F
MONTICELLO     SUNNY     73  54  51 VRB3      30.17F
$$





USA.gov is the U.S. government's official web portal to all federal, state and local government web resources and services.